Francistown, Botswana

4:56 AM CAT on May 22, 2018 (GMT +0200)
Francistown

Weather History for FBFT - November, 2011

Change the Weather History Date:

Saturday, November 5, 2011

  Actual Average Record
Temperature  
Mean Temperature 79 °F -  
Max Temperature 93 °F 86 °F 100 °F (1996)
Min Temperature 65 °F 64 °F 57 °F (2014)
Cooling Degree Days 14    
Growing Degree Days 29 (Base 50)    
Moisture  
Dew Point 56 °F    
Average Humidity 44    
Maximum Humidity 83    
Minimum Humidity 21    
Precipitation  
Precipitation 0.00 in - - ()
Sea Level Pressure  
Sea Level Pressure 29.97 in    
Wind  
Wind Speed 7 mph ()    
Max Wind Speed 16 mph    
Max Gust Speed -    
Visibility 6.2 miles    
Events      
Averages and records for this station are not official NWS values.
T = Trace of Precipitation, MM = Missing Value Source: Averaged Metar Reports

Daily Weather History Graph

Daily Weather History Graph

Search for Another Location

Airport or City:

Astronomy

Nov. 05, 2011 Rise Set
Actual Time 5:24 AM CAT 6:22 PM CAT
Civil Twilight 5:01 AM CAT 6:45 PM CAT
Nautical Twilight 4:34 AM CAT 7:13 PM CAT
Astronomical Twilight 4:06 AM CAT 7:41 PM CAT
Moon 2:06 PM CAT (11/5) 1:52 AM CAT (11/5)
Length of Visible Light 13h 44m
Length of Day
12h 57m
Waxing Gibbous, 76% of the Moon is Illuminated
Nov 5
Waxing Gibbous
Nov 10
Full
Nov 18
Last Quarter
Nov 25
New
Dec 2
First Quarter

Hourly Weather History & Observations

Time (CAT) Temp. Heat Index Dew Point Humidity Pressure Visibility Wind Dir Wind Speed Gust Speed Precip Events Conditions
12:00 AM 73.4 °F - 59.0 °F 61% 29.98 in - WSW 16.1 mph - N/A   Clear
1:00 AM 73.4 °F - 60.8 °F 65% 30.01 in - SSW 5.8 mph - N/A   Clear
3:00 AM 71.6 °F - 59.0 °F 64% 30.01 in - Variable 2.3 mph - N/A   Clear
6:00 AM 68.0 °F - 62.6 °F 83% 30.01 in - Variable 2.3 mph - N/A   Clear
7:00 AM 68.0 °F - 62.6 °F 83% 30.01 in 6.2 mi NNE 6.9 mph - N/A   Mostly Cloudy
8:00 AM 72 °F - 59 °F 55%  in 6 mi NNE 6.9 mph - -   Mostly Cloudy
8:00 AM 71.6 °F - 59.0 °F 64% 30.01 in - NNE 6.9 mph - N/A   Clear
9:00 AM 77.0 °F - 59.0 °F 54% 30.01 in - NNW 5.8 mph - N/A   Clear
10:00 AM 82.4 °F 82.5 °F 59.0 °F 45% 30.01 in - NNW 9.2 mph - N/A   Clear
11:00 AM 84.2 °F 83.8 °F 59.0 °F 42% 29.98 in 6.2 mi NW 11.5 mph - N/A   Mostly Cloudy
12:00 PM 87.8 °F 87.1 °F 59.0 °F 38% 29.95 in 6.2 mi NNW 6.9 mph - N/A   Scattered Clouds
1:00 PM 93.2 °F 92.6 °F 59.0 °F 32% 29.95 in 6.2 mi NNW 11.5 mph - N/A   Scattered Clouds
2:00 PM 93 °F - 57 °F 21%  in 6 mi West 10.4 mph - -   Mostly Cloudy
2:00 PM 93.2 °F 91.9 °F 57.2 °F 30% 29.92 in 6.2 mi West 10.4 mph - N/A   Scattered Clouds
3:00 PM 93.2 °F 91.3 °F 55.4 °F 28% 29.89 in 6.2 mi SW 10.4 mph - N/A   Scattered Clouds
4:00 PM 93.2 °F - 50.0 °F 23% 29.89 in 6.2 mi West 13.8 mph - N/A   Partly Cloudy
5:00 PM 91.4 °F - 51.8 °F 26% 29.89 in 6.2 mi West 11.5 mph - N/A   Scattered Clouds
6:00 PM 91.4 °F - 50.0 °F 24% 29.89 in 6.2 mi WSW 9.2 mph - N/A   Scattered Clouds
7:00 PM 87.8 °F - 50.0 °F 27% 29.92 in 6.2 mi SW 6.9 mph - N/A   Scattered Clouds
8:00 PM 84.2 °F - 51.8 °F 33% 29.95 in - WSW 6.9 mph - N/A   Clear
9:00 PM 80.6 °F - 50.0 °F 34% 29.98 in - SW 6.9 mph - N/A   Clear
10:00 PM 77.0 °F - 48.2 °F 36% 30.01 in - SSW 5.8 mph - N/A   Clear
11:00 PM 71.6 °F - 48.2 °F 43% 30.01 in - SSW 4.6 mph - N/A   Clear